Weather History for PASX - September, 2014

Change the Weather History Date:

Thursday, September 4, 2014

  Actual Average Record
Temperature  
Mean Temperature 46 °F -  
Max Temperature 51 °F 57 °F 70 °F (1963)
Min Temperature 41 °F 42 °F 28 °F (1982)
Degree Days  
Heating Degree Days 19    
Moisture  
Dew Point 44 °F    
Average Humidity 88    
Maximum Humidity 94    
Minimum Humidity 76    
Precipitation  
Precipitation 0.34 in - - ()
Sea Level Pressure  
Sea Level Pressure 29.88 in    
Wind  
Wind Speed 3 mph (NE)    
Max Wind Speed 9 mph    
Max Gust Speed 16 mph    
Visibility 9 miles    
Events      
Averages and records for this station are not official NWS values.
T = Trace of Precipitation, MM = Missing Value Source: NWS Daily Summary

Daily Weather History Graph

Daily Weather History Graph

Search for Another Location

Airport or City:

Trip Planner

Search our weather history database for the weather conditions in past years. The results will help you decide how hot, cold, wet, or windy it might be!

Date:

Astronomy

Sep. 04, 2014 Rise Set
Actual Time 7:05 AM AKDT 8:58 PM AKDT
Civil Twilight 6:20 AM AKDT 9:43 PM AKDT
Nautical Twilight 5:22 AM AKDT 10:40 PM AKDT
Astronomical Twilight 4:09 AM AKDT 11:52 PM AKDT
Moon 6:33 PM AKDT (9/4) 1:13 AM AKDT (9/4)
Length of Visible Light 15h 22m
Length of Day
13h 53m
Waxing Gibbous, 76% of the Moon is Illuminated
Sep 4
Waxing Gibbous
Sep 8
Full
Sep 15
Last Quarter
Sep 23
New
Oct 1
First Quarter

Hourly Weather History & Observations

Time (AKDT) Temp. Windchill Dew Point Humidity Pressure Visibility Wind Dir Wind Speed Gust Speed Precip Events Conditions
12:16 AM 48.2 °F - 41.0 °F 76% 29.99 in 10.0 mi Calm Calm - N/A   Overcast
12:36 AM 48.2 °F - 42.8 °F 82% 29.98 in 10.0 mi Calm Calm - N/A   Overcast
12:56 AM 46.4 °F - 41.0 °F 81% 29.98 in 10.0 mi Calm Calm - N/A   Scattered Clouds
1:16 AM 46.4 °F - 39.2 °F 76% 29.98 in 10.0 mi Calm Calm - N/A   Partly Cloudy
1:36 AM 46.4 °F - 39.2 °F 76% 29.98 in 10.0 mi Calm Calm - N/A   Clear
1:56 AM 44.6 °F - 39.2 °F 81% 29.98 in 10.0 mi Calm Calm - N/A   Clear
2:16 AM 44.6 °F - 39.2 °F 81% 29.98 in 10.0 mi Calm Calm - N/A   Clear
2:36 AM 44.6 °F - 39.2 °F 81% 29.98 in 10.0 mi Calm Calm - N/A   Clear
2:56 AM 44.6 °F - 39.2 °F 81% 29.98 in 10.0 mi Calm Calm - N/A   Clear
3:16 AM 42.8 °F - 37.4 °F 81% 29.98 in 10.0 mi Calm Calm - N/A   Clear
3:56 AM 42.8 °F - 39.2 °F 87% 29.97 in 10.0 mi Calm Calm - N/A   Clear
4:36 AM 41.0 °F - 37.4 °F 87% 29.97 in 10.0 mi Calm Calm - N/A   Clear
4:56 AM 42.8 °F - 39.2 °F 87% 29.97 in 10.0 mi Calm Calm - N/A   Clear
5:16 AM 42.8 °F - 37.4 °F 81% 29.96 in 10.0 mi Calm Calm - N/A   Clear
5:36 AM 42.8 °F - 37.4 °F 81% 29.96 in 10.0 mi Calm Calm - N/A   Clear
5:56 AM 42.8 °F - 39.2 °F 87% 29.96 in 10.0 mi Calm Calm - N/A   Clear
6:16 AM 44.6 °F - 39.2 °F 81% 29.96 in 10.0 mi Calm Calm - N/A   Scattered Clouds
6:36 AM 42.8 °F - 39.2 °F 87% 29.95 in 10.0 mi Calm Calm - N/A   Scattered Clouds
6:56 AM 42.8 °F - 39.2 °F 87% 29.95 in 10.0 mi Calm Calm - N/A   Clear
7:16 AM 44.6 °F - 39.2 °F 81% 29.95 in 10.0 mi Calm Calm - N/A   Partly Cloudy
7:36 AM 46.4 °F 45.2 °F 42.8 °F 87% 29.94 in 10.0 mi NE 3.5 mph - N/A   Partly Cloudy
7:56 AM 46.4 °F - 42.8 °F 87% 29.94 in 10.0 mi Calm Calm - N/A   Mostly Cloudy
8:16 AM 48.2 °F - 42.8 °F 82% 29.93 in 10.0 mi NE 8.1 mph - N/A   Overcast
8:36 AM 48.2 °F - 42.8 °F 82% 29.93 in 10.0 mi ENE 3.5 mph - N/A   Overcast
8:56 AM 48.2 °F - 42.8 °F 82% 29.93 in 10.0 mi NNE 3.5 mph - N/A   Overcast
9:16 AM 48.2 °F - 42.8 °F 82% 29.92 in 10.0 mi NNE 3.5 mph - N/A   Mostly Cloudy
9:36 AM 48.2 °F - 42.8 °F 82% 29.92 in 10.0 mi NE 5.8 mph - N/A   Overcast
9:56 AM 48.2 °F - 42.8 °F 82% 29.92 in 10.0 mi East 3.5 mph - N/A   Overcast
10:16 AM 46.4 °F - 44.6 °F 93% 29.91 in 8.0 mi Calm Calm - N/A   Overcast
10:36 AM 48.2 °F - 44.6 °F 87% 29.91 in 10.0 mi NNE 4.6 mph - 0.01 in   Overcast
10:56 AM 48.2 °F - 44.6 °F 87% 29.91 in 10.0 mi NNE 5.8 mph - 0.02 in   Overcast
11:16 AM 48.2 °F - 44.6 °F 87% 29.91 in 10.0 mi NE 5.8 mph - 0.01 in   Overcast
11:36 AM 48.2 °F - 44.6 °F 87% 29.91 in 9.0 mi NE 6.9 mph - 0.03 in   Overcast
11:56 AM 48.2 °F - 46.4 °F 93% 29.90 in 9.0 mi NE 5.8 mph - 0.04 in   Overcast
12:16 PM 48.2 °F - 46.4 °F 93% 29.89 in 10.0 mi NE 6.9 mph - 0.01 in   Overcast
12:36 PM 48.2 °F - 46.4 °F 93% 29.89 in 10.0 mi NNE 6.9 mph - 0.02 in   Overcast
12:56 PM 48.2 °F - 46.4 °F 93% 29.88 in 10.0 mi NNE 5.8 mph - 0.03 in   Overcast
1:16 PM 48.2 °F - 46.4 °F 93% 29.87 in 9.0 mi NE 6.9 mph - 0.02 in   Overcast
1:36 PM 48.2 °F - 46.4 °F 93% 29.86 in 9.0 mi NE 6.9 mph - 0.03 in   Overcast
1:56 PM 48.2 °F - 46.4 °F 93% 29.86 in 9.0 mi NNE 4.6 mph - 0.04 in   Overcast
2:16 PM 48.2 °F - 46.4 °F 93% 29.85 in 9.0 mi NNE 5.8 mph - 0.02 in   Overcast
2:36 PM 48.2 °F - 46.4 °F 93% 29.84 in 10.0 mi NE 3.5 mph - 0.04 in   Overcast
2:56 PM 48.2 °F - 46.4 °F 93% 29.84 in 10.0 mi NNE 6.9 mph - 0.06 in   Mostly Cloudy
3:16 PM 48.2 °F - 46.4 °F 93% 29.84 in 10.0 mi NNE 5.8 mph - 0.02 in   Overcast
3:36 PM 50.0 °F - 48.2 °F 94% 29.83 in 10.0 mi NNE 3.5 mph - 0.04 in   Overcast
3:56 PM 51.8 °F - 48.2 °F 88% 29.82 in 10.0 mi NE 8.1 mph - 0.05 in   Overcast
4:16 PM 51.8 °F - 48.2 °F 88% 29.81 in 10.0 mi NNE 9.2 mph - N/A   Mostly Cloudy
4:36 PM 51.8 °F - 48.2 °F 88% 29.81 in 10.0 mi NE 8.1 mph 16.1 mph 0.01 in   Overcast
4:56 PM 51.8 °F - 48.2 °F 88% 29.80 in 10.0 mi NNE 9.2 mph - 0.01 in   Overcast
5:16 PM 50.0 °F - 46.4 °F 87% 29.79 in 10.0 mi NE 9.2 mph 16.1 mph 0.02 in   Mostly Cloudy
5:36 PM 50.0 °F - 46.4 °F 87% 29.78 in 9.0 mi NNE 9.2 mph - 0.03 in   Mostly Cloudy
5:56 PM 48.2 °F - 46.4 °F 93% 29.79 in 10.0 mi NNE 5.8 mph - 0.03 in   Overcast
6:16 PM 48.2 °F - 46.4 °F 93% 29.79 in 10.0 mi North 5.8 mph - N/A   Overcast
6:36 PM 48.2 °F - 46.4 °F 93% 29.78 in 10.0 mi NNE 6.9 mph - N/A   Overcast
6:56 PM 48.2 °F - 46.4 °F 93% 29.78 in 10.0 mi North 5.8 mph - 0.01 in   Overcast
7:16 PM 48.2 °F - 46.4 °F 93% 29.79 in 6.0 mi NNE 8.1 mph - N/A   Overcast
7:36 PM 48.2 °F - 46.4 °F 93% 29.79 in 5.0 mi NNE 8.1 mph - 0.01 in   Overcast
7:56 PM 48.2 °F - 46.4 °F 93% 29.78 in 5.0 mi NE 8.1 mph - 0.02 in   Overcast
8:16 PM 48.2 °F - 46.4 °F 93% 29.78 in 6.0 mi NE 5.8 mph - N/A   Overcast
8:36 PM 48.2 °F - 46.4 °F 93% 29.78 in 3.0 mi NE 5.8 mph - N/A   Overcast
8:56 PM 48.2 °F - 46.4 °F 93% 29.78 in 3.0 mi NE 5.8 mph - 0.01 in   Overcast
9:16 PM 48.2 °F - 46.4 °F 93% 29.78 in 2.5 mi ENE 4.6 mph - N/A   Overcast
9:36 PM 48.2 °F - 46.4 °F 93% 29.78 in 4.0 mi ENE 8.1 mph - 0.01 in   Overcast
9:56 PM 48.2 °F - 46.4 °F 93% 29.78 in 4.0 mi East 3.5 mph - 0.01 in   Overcast
10:16 PM 48.2 °F - 46.4 °F 93% 29.78 in 7.0 mi Calm Calm - N/A   Overcast
10:36 PM 48.2 °F - 46.4 °F 93% 29.78 in 5.0 mi NE 3.5 mph - 0.01 in   Overcast
10:56 PM 48.2 °F - 46.4 °F 93% 29.78 in 6.0 mi ENE 3.5 mph - 0.01 in   Overcast
11:16 PM 48.2 °F - 46.4 °F 93% 29.79 in 5.0 mi Calm Calm - N/A   Overcast
11:36 PM 48.2 °F - 46.4 °F 93% 29.79 in 5.0 mi NE 3.5 mph - N/A   Overcast
11:56 PM 48.2 °F - 46.4 °F 93% 29.79 in 3.0 mi ENE 4.6 mph - N/A   Overcast